Defiance, OH

10:34 AM EDT on April 23, 2017 (GMT -0400)
Defiance Memorial

Weather History for KDFI - March, 2013

Change the Weather History Date:

Friday, March 1, 2013

  Actual Average Record
Temperature  
Mean Temperature 30 °F -  
Max Temperature 33 °F 40 °F 65 °F (1976)
Min Temperature 27 °F 20 °F -3 °F (1960)
Degree Days  
Heating Degree Days 35    
Moisture  
Dew Point 23 °F    
Average Humidity 74    
Maximum Humidity 87    
Minimum Humidity 66    
Precipitation  
Precipitation 0.00 in - - ()
Sea Level Pressure  
Sea Level Pressure 30.04 in    
Wind  
Wind Speed 9 mph (NNE)    
Max Wind Speed 13 mph    
Max Gust Speed 18 mph    
Visibility 10 miles    
Events      
Averages and records for this station are not official NWS values.
T = Trace of Precipitation, MM = Missing Value Source: NWS Daily Summary

Daily Weather History Graph

Daily Weather History Graph

Search for Another Location

Airport or City:

Trip Planner

Search our weather history database for the weather conditions in past years. The results will help you decide how hot, cold, wet, or windy it might be!

Date:

Astronomy

Mar. 01, 2013 Rise Set
Actual Time 7:11 AM EST 6:28 PM EST
Civil Twilight 6:44 AM EST 6:56 PM EST
Nautical Twilight 6:12 AM EST 7:28 PM EST
Astronomical Twilight 5:40 AM EST 8:00 PM EST
Moon 11:04 PM EST (3/1) 8:54 AM EST (3/1)
Length of Visible Light 12h 12m
Length of Day
11h 16m
Waning Gibbous, 83% of the Moon is Illuminated
Mar 1
Waning Gibbous
Mar 4
Last Quarter
Mar 11
New
Mar 19
First Quarter
Mar 27
Full

Hourly Weather History & Observations

Time (EST) Temp. Windchill Dew Point Humidity Pressure Visibility Wind Dir Wind Speed Gust Speed Precip Events Conditions
12:33 AM 33.8 °F 27.0 °F 28.4 °F 81% 29.95 in 10.0 mi North 8.1 mph - N/A   Overcast
12:53 AM 33.1 °F 26.1 °F 28.0 °F 82% 29.97 in 10.0 mi NNE 8.1 mph - N/A   Overcast
1:53 AM 33.1 °F 24.4 °F 28.0 °F 82% 29.98 in 10.0 mi NNE 11.5 mph - N/A   Overcast
2:10 AM 32.0 °F 24.8 °F 28.4 °F 87% 29.96 in 10.0 mi NNE 8.1 mph - N/A   Overcast
2:53 AM 32.0 °F 24.8 °F 28.0 °F 85% 29.98 in 10.0 mi NE 8.1 mph - N/A   Overcast
3:15 AM 32.0 °F 23.6 °F 26.6 °F 80% 29.96 in 10.0 mi NNE 10.4 mph - N/A   Overcast
3:53 AM 32.0 °F 24.8 °F 25.0 °F 75% 29.98 in 10.0 mi NNE 8.1 mph - N/A   Overcast
4:15 AM 32.0 °F 24.8 °F 26.6 °F 80% 29.96 in 10.0 mi NNE 8.1 mph - N/A   Overcast
4:53 AM 30.9 °F 23.5 °F 26.1 °F 82% 29.99 in 10.0 mi NNE 8.1 mph - N/A   Overcast
5:53 AM 30.9 °F 22.8 °F 24.1 °F 76% 30.00 in 10.0 mi North 9.2 mph - N/A   Overcast
6:53 AM 30.0 °F 20.5 °F 24.1 °F 79% 30.02 in 10.0 mi North 11.5 mph - N/A   Overcast
7:53 AM 30.0 °F 22.4 °F 23.0 °F 75% 30.04 in 10.0 mi North 8.1 mph - N/A   Overcast
8:53 AM 30.0 °F 21.7 °F 23.0 °F 75% 30.06 in 10.0 mi NNE 9.2 mph - N/A   Overcast
9:53 AM 30.0 °F 22.4 °F 23.0 °F 75% 30.06 in 10.0 mi NE 8.1 mph - N/A   Overcast
10:53 AM 30.0 °F 20.5 °F 21.9 °F 72% 30.07 in 10.0 mi North 11.5 mph - N/A   Overcast
11:53 AM 30.0 °F 20.5 °F 21.0 °F 69% 30.09 in 10.0 mi North 11.5 mph - N/A   Overcast
12:53 PM 30.0 °F 20.0 °F 21.0 °F 69% 30.08 in 10.0 mi NNE 12.7 mph - N/A   Overcast
1:53 PM 28.9 °F 20.4 °F 21.0 °F 72% 30.07 in 10.0 mi North 9.2 mph - N/A   Overcast
2:53 PM 28.9 °F 19.8 °F 19.0 °F 67% 30.07 in 10.0 mi North 10.4 mph 18.4 mph N/A   Overcast
3:53 PM 28.0 °F 19.3 °F 19.0 °F 69% 30.08 in 10.0 mi NNE 9.2 mph - N/A   Overcast
4:53 PM 28.0 °F 17.5 °F 18.0 °F 66% 30.09 in 10.0 mi NNE 12.7 mph - N/A   Overcast
5:53 PM 28.0 °F 18.1 °F 18.0 °F 66% 30.10 in 10.0 mi North 11.5 mph - N/A   Overcast
6:53 PM 27.0 °F 18.0 °F 18.0 °F 69% 30.11 in 10.0 mi NNE 9.2 mph - N/A   Overcast
7:53 PM 27.0 °F 18.7 °F 18.0 °F 69% 30.13 in 10.0 mi NNE 8.1 mph - N/A   Overcast
9:53 PM 27.0 °F 16.7 °F 18.0 °F 69% 30.14 in 10.0 mi NNE 11.5 mph - N/A   Overcast
10:53 PM 27.0 °F 17.3 °F 18.0 °F 69% 30.13 in 10.0 mi NNE 10.4 mph - N/A   Overcast
11:53 PM 27.0 °F 17.3 °F 18.0 °F 69% 30.12 in 10.0 mi NNE 10.4 mph - N/A   Overcast